Regional Weather Roundup
Issued by NWS

Home | Current Version | Previous Version | Text Only | Print | Product List | Glossary Off
Versions: 1 2 3 4 5 6 7 8 9 10 11 12 13 14 15 16 17 18 19 20 21 22 23 24 25 26 27 28 29 30 31 32 33 34 35 36 37 38 39 40 41 42 43 44 45 46 47 48

000
ASUS45 KBOU 070207
RWRCO

WEATHER ROUNDUP FOR COLORADO
NATIONAL WEATHER SERVICE DENVER/BOULDER CO
700 PM MST SAT FEB 06 2016

NOTE: "FAIR" INDICATES FEW OR NO CLOUDS BELOW 12000 FEET WITH NO
SIGNIFICANT WEATHER AND/OR OBSTRUCTIONS TO VISIBILITY.

COZ001>005-013-030-031-070300-
...NORTHWEST COLORADO...

CITY           SKY/WX    TMP DP  RH WIND       PRES   REMARKS
CRAIG          CLOUDY     5   1  83 SW5       30.40R WCI  -4
HAYDEN         CLOUDY    19  10  68 E5        30.37S WCI  13
MEEKER         CLOUDY    17  11  77 NE5       30.39R WCI  10
MOUNT WERNER   NOT AVBL
STEAMBOAT SPGS CLOUDY    16   9  74 CALM      30.38R
WALDEN         CLOUDY    30  14  51 SW13G21   30.30S WCI  20
$$

COZ006>008-011-070300-
...WEST CENTRAL VALLEYS...

CITY           SKY/WX    TMP DP  RH WIND       PRES   REMARKS
GRAND JUNCTION CLOUDY    16  12  84 CALM      30.49R
MONTROSE       CLOUDY    15  10  80 E7        30.46R WCI   5
EAGLE          CLEAR     19  14  79 CALM      30.43R
RIFLE          CLOUDY    16   7  67 S3        30.45R
DELTA          CLOUDY    22  17  78 CALM      30.47R
NUCLA          CLOUDY    30  14  51 CALM      30.46R
$$

COZ017>023-064>068-070300-
...SOUTHWEST COLORADO...

CITY           SKY/WX    TMP DP  RH WIND       PRES   REMARKS
DURANGO        CLOUDY    23  11  60 CALM      30.38R
CORTEZ         CLOUDY    31  19  61 W5        30.41R WCI  26
PAGOSA SPRINGS CLOUDY    22  15  74 CALM      30.38R
TELLURIDE      NOT AVBL
WOLF CREEK PAS CLOUDY    21   5  49 N7        30.42R WCI  13
$$

COZ009-010-012-014-032>034-037-058>063-070300-
...CENTRAL COLORADO...

CITY           SKY/WX    TMP DP  RH WIND       PRES   REMARKS
ASPEN          CLOUDY    14   8  77 S5        30.37F WCI   6
BUENA VISTA    CLOUDY    33  14  46 N13       30.28R WCI  24
COPPER MTN     CLOUDY    19  12  73 W14       30.36S WCI   6
BERTHOUD PASS  LGT SNOW  12   1  62 NW52G63   30.23S WCI -14
COTTONWOOD PAS CLOUDY    34   9  35 SW14G28   30.29F WCI  24
GUNNISON       CLOUDY    -2 -11  65 CALM      30.46S
KREMMLING      CLOUDY     5   0  78 CALM      30.41S
LEADVILLE      CLOUDY    20   9  62 N7        30.33S WCI  11
MONARCH PASS     N/A     12   9  85 MISG      30.41S
SALIDA         NOT AVBL
SUNLIGHT       CLOUDY    23  19  86 CALM        N/A
WILKERSON PASS CLOUDY    23   9  54 W7        30.29F WCI  15
$$

COZ069>075-070300-
...SAN LUIS VALLEY/SANGRE DE CRISTO MOUNTAINS...

CITY           SKY/WX    TMP DP  RH WIND       PRES   REMARKS
ALAMOSA        CLOUDY    21  11  65 NW6       30.33S WCI  13
LA VETA PASS   CLOUDY    19  10  68 MISG      30.30R
SAGUACHE       CLOUDY    12   5  73 CALM      30.36R
$$

COZ035-036-038>040-070300-
...NORTHERN COLORADO FRONT RANGE...

CITY           SKY/WX    TMP DP  RH WIND       PRES   REMARKS
DENVER INTL AP CLOUDY    41  20  43 W13       30.11R
DMNS CITY PARK   N/A     47  13  25 W10G20    30.12S
AURORA         MOCLDY    42  19  39 NW8       30.13R
FRONT RANGE AP MOCLDY    39  19  45 W13       30.12R
ERIE MUNI ARPT CLOUDY    47  15  27 NW22G31   30.10R
BOULDER MUN AP CLOUDY    48  14  25 NW21G33   30.10R
CENTENNIAL     CLOUDY    45  14  28 W6        30.13R
BROOMFIELD     MOCLDY    45  16  31 CALM      30.12R
FORT COLLINS   CLOUDY    41  21  45 SW9       30.09F
LONGMONT       CLOUDY    45  18  33 SW8       30.11S
$$

COZ041-046-047-076>085-087-088-070300-
...PIKES PEAK/PALMER DIVIDE AND SOUTHERN FOOTHILLS...

CITY           SKY/WX    TMP DP  RH WIND       PRES   REMARKS
COLO. SPRINGS  CLOUDY    32  13  45 N9        30.14F WCI  24
A. F. ACADEMY  CLOUDY    44  12  26 N12G22    30.13S
SCHRIEVER AFB  FAIR      33  13  42 NW3G15    30.14F
ELLICOTT       NOT AVBL
FALCON         CLOUDY    28  14  54 SW5       30.16S WCI  23
FORT CARSON    CLOUDY    29  14  53 NW12      30.12S WCI  20
LIMON          CLOUDY    14  10  84 N7        30.12S WCI   4
MONUMENT HILL  CLOUDY    32  14  47 W10       30.17R WCI  24
TRINIDAD       CLEAR     45  14  28 SE6       30.16F
$$

COZ042>045-048>051-090-091-070300-
...NORTHEAST COLORADO...

CITY           SKY/WX    TMP DP  RH WIND       PRES   REMARKS
GREELEY ARPT   CLOUDY    21  16  79 W5        30.10R WCI  15
AKRON          CLOUDY    34  24  67 W14       30.06R WCI  25
BURLINGTON     CLOUDY    32  20  61 SW17      30.07F WCI  21
WRAY           CLOUDY    35  27  74 SW9       30.03S WCI  27
STERLING       CLOUDY    27  21  80 S8        30.04F WCI  18
HOLYOKE        CLOUDY    32  27  80 W10       30.01F WCI  24
FORT MORGAN    CLOUDY    28  20  72 NW7       30.08R WCI  20
$$

COZ086-089-092>099-070300-
...SOUTHEAST COLORADO...

CITY           SKY/WX    TMP DP  RH WIND       PRES   REMARKS
PUEBLO         CLOUDY    30  20  66 N8        30.12F WCI  22
LA JUNTA       CLOUDY    31  24  75 NW8       30.12S WCI  23
LAMAR          CLEAR     32  24  72 W6        30.10S WCI  26
SPRINGFIELD      N/A     35   9  33 SW7       30.13F WCI  29
$$



USA.gov is the U.S. government's official web portal to all federal, state and local government web resources and services.